Seattle Boeing, WA
on Sunday, November 4, 2012

Sunday
Previous Day Next Day
Daily Summary
 ActualAverage (KSEA)Record (KSEA)
Temperature
Mean Temperature °F 48°F  
Max Temperature 64°F 54°F 74°F (1949)
Min Temperature 55°F 42°F 30°F (1957)
Degree Days
Heating Degree Days 6 17  
Month to date heating degree days 67  
Since 1 July heating degree days 664  
Cooling Degree Days 0 0  
Month to date cooling degree days 0  
Year to date cooling degree days 189  
Growing Degree Days10 (Base °F )  
Moisture
Dew Point 55°F   
Average Humidity 90    
Maximum Humidity 97    
Minimum Humidity 75    
Precipitation
Precipitation 0.17 in 0.20 in 1.91 in (2006)
Month to date precipitation 0.78  
Year to date precipitation 26.35  
Snow
Snow 0.00 in in T in (1973)
Month to date snowfall  
Since 1 July snowfall  
Snow Depth in   
Wind
Wind Speed 4 mph   
Max Wind Speed 14 mph   
Max Gust Speed 22 mph   
Visibility 8 miles   
Events Rain   

Key: T is trace of precipitation, MM is missing value
Source: NWS Daily Summary
Time(PST)TemperatureDew PointHumidity Pressure Visibility Wind DirectionWind SpeedGust SpeedPrecipitationEvents Conditions
12:53 AM 57.0°F 53.1°F 87% 30.18 in 10.0 miles Calm Calm - N/A   Overcast
1:49 AM 55.4°F 53.6°F 94% 30.18 in 10.0 miles Calm Calm - N/A   Overcast
1:53 AM 55.9°F 54.0°F 93% 30.18 in 10.0 miles Calm Calm - N/A   Overcast
1:20 AM 55.4°F 53.6°F 94% 30.19 in 4.0 miles Calm Calm - 0.01 in Rain Light Rain
1:41 AM 55.4°F 53.6°F 94% 30.19 in 4.0 miles Calm Calm - 0.02 in Rain Light Rain
1:53 AM 55.9°F 54.0°F 93% 30.19 in 4.0 miles ESE 3.5 mph - 0.02 in Rain Light Rain
2:05 AM 55.4°F 53.6°F 94% 30.19 in 4.0 miles SE 3.5 mph - 0.00 in   Overcast
2:53 AM 55.9°F 54.0°F 93% 30.19 in 5.0 miles ESE 3.5 mph - 0.01 in   Overcast
3:53 AM 55.0°F 54.0°F 96% 30.18 in 4.0 miles ESE 5.8 mph - 0.01 in   Overcast
4:53 AM 55.0°F 54.0°F 96% 30.20 in 3.0 miles SSE 5.8 mph - 0.00 in Rain Light Rain
5:53 AM 55.0°F 54.0°F 96% 30.20 in 7.0 miles SSE 6.9 mph - 0.01 in   Overcast
6:53 AM 55.0°F 54.0°F 96% 30.19 in 7.0 miles SSE 8.1 mph - N/A   Overcast
6:57 AM 55.4°F 53.6°F 94% 30.19 in 9.0 miles SE 6.9 mph - N/A   Overcast
7:04 AM 55.4°F 53.6°F 94% 30.19 in 10.0 miles SE 6.9 mph - N/A   Overcast
7:53 AM 55.9°F 55.0°F 97% 30.20 in 10.0 miles Calm Calm - N/A   Overcast
8:00 AM 55.4°F 53.6°F 94% 30.20 in 10.0 miles Calm Calm - N/A   Overcast
8:53 AM 57.0°F 55.0°F 93% 30.21 in 10.0 miles Calm Calm - N/A   Overcast
9:53 AM 57.9°F 55.9°F 93% 30.22 in 10.0 miles SE 8.1 mph - N/A   Overcast
10:53 AM 60.1°F 57.0°F 90% 30.24 in 10.0 miles SSE 4.6 mph - N/A   Overcast
11:53 AM 62.1°F 57.0°F 84% 30.23 in 10.0 miles SSE 9.2 mph - N/A   Overcast
12:53 PM 63.0°F 57.0°F 81% 30.23 in 10.0 miles SSE 3.5 mph - N/A   Overcast
1:53 PM 64.0°F 57.0°F 78% 30.23 in 10.0 miles South 10.4 mph 17.3 mph N/A   Overcast
2:48 PM 62.6°F 57.2°F 82% 30.23 in 10.0 miles SSW 11.5 mph 17.3 mph N/A   Overcast
2:53 PM 62.1°F 57.9°F 86% 30.22 in 10.0 miles South 10.4 mph 17.3 mph N/A   Overcast
3:53 PM 64.0°F 57.9°F 80% 30.19 in 10.0 miles SE 13.8 mph 21.9 mph 0.00 in   Mostly Cloudy
4:53 PM 64.0°F 55.9°F 75% 30.22 in 10.0 miles South 8.1 mph - 0.00 in Rain Light Rain
5:53 PM 63.0°F 57.0°F 81% 30.24 in 10.0 miles SW 6.9 mph - 0.00 in   Mostly Cloudy
6:53 PM 61.0°F 57.9°F 90% 30.23 in 10.0 miles South 6.9 mph - 0.00 in   Mostly Cloudy
7:53 PM 61.0°F 57.9°F 90% 30.23 in 6.0 miles West 4.6 mph - 0.07 in Rain Light Rain
8:53 PM 61.0°F 59.0°F 93% 30.24 in 3.0 miles South 8.1 mph - 0.01 in Rain Light Rain
9:53 PM 61.0°F 57.9°F 90% 30.25 in 5.0 miles South 3.5 mph - 0.01 in Rain Light Rain
10:53 PM 60.1°F 57.0°F 90% 30.26 in 4.0 miles Variable 4.6 mph - 0.03 in Rain Light Rain
Moon Phase
Nov. 04 Nov. 06 Nov. 13 Nov. 20 Nov. 28
Sunrise:06:58 AM (PST) Moon Rise:09:26 PM (PST)11/4
Sunset:04:46 PM (PST) Moon Set:11:49 AM (PST)11/4

Copyright © 2014 The Weather Underground, Inc.